TimeCST,TemperatureF,Dew PointF,Humidity,Sea Level PressureIn,VisibilityMPH,Wind Direction,Wind SpeedMPH,Gust SpeedMPH,PrecipitationIn,Events,Conditions,WindDirDegrees,DateUTC
12:15 AM,35.6,32.9,90,30.24,10.0,Calm,Calm,-,N/A,,Unknown,0,2013-12-19 06:15:00
12:35 AM,36.0,33.4,91,30.24,10.0,Calm,Calm,-,N/A,,Unknown,0,2013-12-19 06:35:00
12:55 AM,35.6,33.1,91,30.23,10.0,Calm,Calm,-,N/A,,Unknown,0,2013-12-19 06:55:00
1:15 AM,35.6,33.1,91,30.23,10.0,Calm,Calm,-,N/A,,Unknown,0,2013-12-19 07:15:00
1:35 AM,35.4,32.9,91,30.23,10.0,Calm,Calm,-,N/A,,Unknown,0,2013-12-19 07:35:00
1:55 AM,35.4,32.7,90,30.23,10.0,Calm,Calm,-,N/A,,Unknown,0,2013-12-19 07:55:00
2:15 AM,34.9,32.4,91,30.23,10.0,Calm,Calm,-,N/A,,Unknown,0,2013-12-19 08:15:00
2:35 AM,35.4,32.9,91,30.23,10.0,Calm,Calm,-,N/A,,Unknown,0,2013-12-19 08:35:00
2:55 AM,36.0,33.4,91,30.23,10.0,Calm,Calm,-,N/A,,Unknown,0,2013-12-19 08:55:00
3:15 AM,35.6,33.1,91,30.22,10.0,Calm,Calm,-,N/A,,Unknown,0,2013-12-19 09:15:00
3:35 AM,35.8,33.4,91,30.23,10.0,Calm,Calm,-,N/A,,Unknown,0,2013-12-19 09:35:00
3:55 AM,36.7,34.3,91,30.22,10.0,Calm,Calm,-,N/A,,Unknown,0,2013-12-19 09:55:00
4:15 AM,36.7,34.3,91,30.21,10.0,Calm,Calm,-,N/A,,Unknown,0,2013-12-19 10:15:00
4:35 AM,36.5,34.0,91,30.21,10.0,Calm,Calm,-,N/A,,Unknown,0,2013-12-19 10:35:00
4:55 AM,38.1,35.8,91,30.21,10.0,North,4.6,-,N/A,,Unknown,360,2013-12-19 10:55:00
5:15 AM,39.2,36.7,91,30.21,10.0,Calm,Calm,-,N/A,,Unknown,0,2013-12-19 11:15:00
5:35 AM,39.2,36.7,91,30.21,10.0,Calm,Calm,-,N/A,,Unknown,0,2013-12-19 11:35:00
5:55 AM,39.7,37.4,91,30.21,10.0,Calm,Calm,-,N/A,,Unknown,0,2013-12-19 11:55:00
6:15 AM,40.1,37.6,91,30.21,10.0,Calm,Calm,-,N/A,,Unknown,0,2013-12-19 12:15:00
6:35 AM,40.3,37.8,91,30.21,10.0,Calm,Calm,-,N/A,,Unknown,0,2013-12-19 12:35:00
6:55 AM,40.6,38.3,91,30.21,10.0,Calm,Calm,-,N/A,,Unknown,0,2013-12-19 12:55:00
7:15 AM,42.6,40.1,91,30.22,7.0,Calm,Calm,-,N/A,,Unknown,0,2013-12-19 13:15:00
7:35 AM,45.1,42.6,91,30.22,10.0,Calm,Calm,-,N/A,,Unknown,0,2013-12-19 13:35:00
7:55 AM,48.0,45.5,91,30.22,10.0,Calm,Calm,-,N/A,,Unknown,0,2013-12-19 13:55:00
8:15 AM,52.0,48.4,88,30.22,10.0,Calm,Calm,-,N/A,,Unknown,0,2013-12-19 14:15:00
8:35 AM,53.8,48.6,82,30.23,10.0,Calm,Calm,-,N/A,,Unknown,0,2013-12-19 14:35:00
8:55 AM,56.3,49.8,79,30.23,10.0,Calm,Calm,-,N/A,,Unknown,0,2013-12-19 14:55:00
9:15 AM,59.7,51.3,74,30.23,10.0,ESE,3.5,-,N/A,,Unknown,120,2013-12-19 15:15:00
9:35 AM,62.6,51.8,68,30.23,10.0,ESE,4.6,-,N/A,,Unknown,120,2013-12-19 15:35:00
9:55 AM,65.8,52.7,62,30.22,10.0,SE,5.8,-,N/A,,Unknown,140,2013-12-19 15:55:00
10:15 AM,67.6,53.4,60,30.22,10.0,South,8.1,-,N/A,,Unknown,170,2013-12-19 16:15:00
10:35 AM,70.0,54.0,57,30.21,10.0,South,9.2,-,N/A,,Unknown,170,2013-12-19 16:35:00
10:55 AM,70.9,54.3,56,30.21,10.0,South,10.4,16.1,N/A,,Unknown,180,2013-12-19 16:55:00
11:15 AM,72.5,54.5,53,30.20,10.0,South,11.5,16.1,N/A,,Clear,170,2013-12-19 17:15:00
11:35 AM,73.2,54.5,52,30.19,10.0,South,13.8,21.9,N/A,,Clear,180,2013-12-19 17:35:00
11:55 AM,73.4,54.1,51,30.18,10.0,SSE,16.1,20.7,N/A,,Unknown,160,2013-12-19 17:55:00
12:15 PM,73.0,54.5,52,30.17,10.0,South,15.0,18.4,N/A,,Unknown,170,2013-12-19 18:15:00
12:35 PM,72.9,54.1,52,30.15,10.0,SSE,12.7,18.4,N/A,,Unknown,150,2013-12-19 18:35:00
12:55 PM,72.5,54.0,52,30.14,10.0,SSE,13.8,20.7,N/A,,Unknown,160,2013-12-19 18:55:00
1:15 PM,73.8,54.5,51,30.13,10.0,South,10.4,-,N/A,,Unknown,170,2013-12-19 19:15:00
1:35 PM,72.7,54.5,53,30.12,10.0,SSE,12.7,18.4,N/A,,Unknown,150,2013-12-19 19:35:00
1:55 PM,73.8,54.7,51,30.11,10.0,South,8.1,-,N/A,,Unknown,180,2013-12-19 19:55:00
2:15 PM,73.4,53.8,50,30.11,10.0,South,16.1,21.9,N/A,,Unknown,170,2013-12-19 20:15:00
2:35 PM,73.6,54.0,50,30.11,10.0,South,13.8,20.7,N/A,,Unknown,180,2013-12-19 20:35:00
2:55 PM,73.6,53.6,50,30.10,10.0,South,12.7,20.7,N/A,,Unknown,170,2013-12-19 20:55:00
3:15 PM,72.5,54.0,52,30.10,10.0,South,8.1,18.4,N/A,,Unknown,170,2013-12-19 21:15:00
3:35 PM,72.5,54.0,52,30.10,10.0,South,9.2,16.1,N/A,,Unknown,180,2013-12-19 21:35:00
3:55 PM,72.0,54.0,53,30.11,10.0,South,11.5,21.9,N/A,,Unknown,170,2013-12-19 21:55:00
4:15 PM,72.5,54.1,52,30.10,10.0,South,13.8,20.7,N/A,,Unknown,180,2013-12-19 22:15:00
4:35 PM,70.9,55.4,58,30.11,10.0,SSE,8.1,-,N/A,,Unknown,160,2013-12-19 22:35:00
4:55 PM,69.6,55.6,61,30.10,10.0,SSE,9.2,-,N/A,,Unknown,160,2013-12-19 22:55:00
5:15 PM,68.9,55.6,62,30.10,10.0,SSE,10.4,-,N/A,,Unknown,150,2013-12-19 23:15:00
5:35 PM,67.5,55.6,66,30.10,10.0,SSE,9.2,-,N/A,,Unknown,150,2013-12-19 23:35:00
5:55 PM,67.1,55.4,66,30.10,10.0,SE,8.1,-,N/A,,Unknown,140,2013-12-19 23:55:00
6:15 PM,66.2,54.9,67,30.10,10.0,SE,8.1,-,N/A,,Unknown,140,2013-12-20 00:15:00
6:35 PM,65.7,54.5,67,30.11,10.0,SE,6.9,-,N/A,,Unknown,140,2013-12-20 00:35:00
6:55 PM,64.9,54.5,69,30.11,10.0,SE,5.8,-,N/A,,Unknown,140,2013-12-20 00:55:00
7:15 PM,64.6,54.5,70,30.11,10.0,SE,4.6,-,N/A,,Unknown,140,2013-12-20 01:15:00
7:35 PM,64.8,54.9,70,30.11,10.0,SE,4.6,-,N/A,,Unknown,140,2013-12-20 01:35:00
7:55 PM,64.6,55.4,72,30.10,10.0,SE,5.8,-,N/A,,Unknown,130,2013-12-20 01:55:00
8:15 PM,64.6,55.6,73,30.10,10.0,SE,9.2,-,N/A,,Unknown,140,2013-12-20 02:15:00
8:35 PM,64.6,55.9,74,30.09,10.0,SE,6.9,-,N/A,,Unknown,140,2013-12-20 02:35:00
8:55 PM,65.1,56.3,73,30.10,10.0,SSE,6.9,-,N/A,,Unknown,150,2013-12-20 02:55:00
9:15 PM,65.3,56.3,73,30.10,10.0,SSE,4.6,-,N/A,,Unknown,150,2013-12-20 03:15:00
9:35 PM,64.4,56.3,75,30.10,10.0,South,5.8,-,N/A,,Unknown,170,2013-12-20 03:35:00
9:55 PM,64.6,56.7,75,30.10,10.0,South,6.9,-,N/A,,Unknown,170,2013-12-20 03:55:00
10:15 PM,64.4,56.8,76,30.09,10.0,SSE,6.9,-,N/A,,Unknown,160,2013-12-20 04:15:00
10:35 PM,64.6,57.2,77,30.09,10.0,South,5.8,-,N/A,,Unknown,170,2013-12-20 04:35:00
10:55 PM,64.6,57.4,77,30.08,10.0,SSE,8.1,-,N/A,,Unknown,160,2013-12-20 04:55:00
11:15 PM,64.4,57.4,78,30.07,10.0,SSE,6.9,-,N/A,,Unknown,160,2013-12-20 05:15:00
11:35 PM,64.4,57.4,78,30.07,10.0,South,3.5,-,N/A,,Unknown,170,2013-12-20 05:35:00
11:55 PM,64.4,57.4,78,30.07,10.0,SSE,4.6,-,N/A,,Unknown,150,2013-12-20 05:55:00